Regional Weather Roundup
Issued by NWS Mt. Holly, NJ

Home | Current Version | Previous Version | Text Only | Print | Product List | Glossary On
Versions: 1 2 3 4 5 6 7 8 9 10 11 12 13 14 15 16 17 18 19 20 21 22 23 24 25 26 27 28 29 30 31 32 33 34 35 36 37 38 39 40 41 42 43 44 45 46 47 48 49 50
000
ASUS41 KPHI 260410
RWRPHI

REGIONAL WEATHER ROUNDUP
NATIONAL WEATHER SERVICE MOUNT HOLLY NJ
1100 PM EST TUE NOV 25 2014

NOTE:  "FAIR" INDICATES FEW OR NO CLOUDS BELOW 12,000 FEET WITH NO
SIGNIFICANT WEATHER AND/OR OBSTRUCTIONS TO VISIBILITY.

 * = STATION DOES NOT REPORT PRECIPITATION (E.G. RAIN, SNOW, ETC.)
        OR FOG.

NJZ015>026-260500-
SOUTHERN NEW JERSEY

CITY           SKY/WX    TMP DP  RH WIND       PRES   REMARKS
POMONA         CLOUDY    48  36  63 CALM      30.18R
RIO GRANDE*    CLOUDY    45  37  76 CALM      30.16R
MILLVILLE      CLOUDY    45  38  76 CALM      30.16S
WRIGHTSTOWN    CLOUDY    46  34  63 W2        30.16R
MOUNT HOLLY    CLOUDY    44  36  73 CALM      30.18R
TRENTON        CLOUDY    43  31  62 CALM      30.17R

$$
NJZ001>014-260500-
NORTHERN NEW JERSEY

CITY           SKY/WX    TMP DP  RH WIND       PRES   REMARKS
SUSSEX         MOCLDY    34  30  85 CALM      30.15R
ANDOVER*         N/A     36  33  89 CALM      30.16R
MORRISTOWN       N/A     41  34  75 CALM      30.16R
NEWARK         CLOUDY    49  31  49 W5        30.16R
TETERBORO      CLOUDY    48  31  51 SW6       30.15R
CALDWELL       CLOUDY    46  28  49 CALM      30.16R
SOMERVILLE     CLOUDY    38  32  79 CALM      30.15R
ALLAIRE*       CLOUDY    46  30  53 CALM      30.17R
TOMS RIVER*    CLOUDY    43  37  81 CALM      30.18R

$$
PAZ043-044-047-054-055-060>062-066>071-260500-
EASTERN PENNSYLVANIA

CITY           SKY/WX    TMP DP  RH WIND       PRES   REMARKS
PHILADELPHIA   CLOUDY    48  34  58 S3        30.18R
NORTH PHILA    CLOUDY    47  32  56 CALM      30.19R
BLUE BELL      CLOUDY    41  37  87 CALM      30.17R
DOYLESTOWN     CLOUDY    39  34  82 CALM      30.17R
QUAKERTOWN*    CLOUDY    36  32  87 CALM      30.17R
POTTSTOWN      CLOUDY    40  33  76 NE3       30.17R
LANCASTER      CLOUDY    36  32  85 E3        30.15R
COATESVILLE    CLOUDY    41  32  70 CALM      30.15S
READING        CLOUDY    40  31  70 CALM      30.15R
ALLENTOWN      CLOUDY    38  29  70 CALM      30.16R
MOUNT POCONO   MOCLDY    40  26  57 W6G17     30.10R
HAZLETON       CLOUDY    41  28  60 W3        30.13F
WILKES BARRE   MOCLDY    39  27  62 CALM      30.13R

$$
DEZALL-MDZ008-012-015-019-020-260500-
DELAWARE AND EASTERN MARYLAND

CITY           SKY/WX    TMP DP  RH WIND       PRES   REMARKS
WILMINGTON     CLOUDY    47  35  63 CALM      30.17R
DOVER          CLOUDY    46  39  76 N2        30.13F
GEORGETOWN     CLOUDY    47  41  80 CALM      30.18R
EASTON         CLOUDY    47  42  80 CALM      30.18F
PATUXENT       CLOUDY    47  42  83 CALM      30.16S
OCEAN CITY     CLOUDY    48  43  82 CALM      30.17S
WALLOPS ISLAND LGT RAIN  51  45  79 NE5       30.16F
CAMBRIDGE      CLOUDY    46  43  87 SE5       30.16R
SALISBURY      CLOUDY    50  41  71 CALM      30.16F

$$
PAZ001-021-NYZ056-072-MDZ011-DCZ001-260500-
OTHER NEARBY LOCATIONS

CITY           SKY/WX    TMP DP  RH WIND       PRES   REMARKS
HARRISBURG     CLOUDY    38  31  76 CALM      30.15R
STATE COLLEGE  MOCLDY    35  26  71 W3        30.16R
WILLIAMSPORT   MOCLDY    33  27  78 VRB3      30.18R
BINGHAMTON     MOCLDY    34  26  72 N7        30.12R WCI  28
NEW YORK CITY  CLOUDY    51  28  41 VRB7      30.18R
BALTIMORE      CLOUDY    44  35  70 CALM      30.15S
WASHINGTON DC  CLOUDY    51  35  54 CALM      30.17R

$$


USA.gov is the U.S. government's official web portal to all federal, state and local government web resources and services.